Year,Month,Day,Hour,Minute,Value (Times are PST for temperature in C)
2017,08,03,00,00,20.80
2017,08,03,00,01,20.80
2017,08,03,00,02,20.80
2017,08,03,00,03,20.80
2017,08,03,00,04,20.80
2017,08,03,00,05,20.70
2017,08,03,00,06,20.70
2017,08,03,00,07,20.70
2017,08,03,00,08,20.70
2017,08,03,00,09,20.70
2017,08,03,00,10,20.70
2017,08,03,00,11,20.70
2017,08,03,00,12,20.70
2017,08,03,00,13,20.70
2017,08,03,00,14,20.70
2017,08,03,00,15,20.70
2017,08,03,00,16,20.80
2017,08,03,00,17,20.80
2017,08,03,00,18,20.80
2017,08,03,00,19,20.80
2017,08,03,00,20,20.80
2017,08,03,00,21,20.80
2017,08,03,00,22,20.80
2017,08,03,00,23,20.80
2017,08,03,00,24,20.80
2017,08,03,00,25,20.80
2017,08,03,00,26,20.70
2017,08,03,00,27,20.70
2017,08,03,00,28,20.70
2017,08,03,00,29,20.70
2017,08,03,00,30,20.70
2017,08,03,00,31,20.70
2017,08,03,00,32,20.70
2017,08,03,00,33,20.70
2017,08,03,00,34,20.70
2017,08,03,00,35,20.70
2017,08,03,00,36,20.60
2017,08,03,00,37,20.60
2017,08,03,00,38,20.60
2017,08,03,00,39,20.60
2017,08,03,00,40,20.60
2017,08,03,00,41,20.60
2017,08,03,00,42,20.60
2017,08,03,00,43,20.60
2017,08,03,00,44,20.60
2017,08,03,00,45,20.60
2017,08,03,00,46,20.60
2017,08,03,00,47,20.60
2017,08,03,00,48,20.60
2017,08,03,00,49,20.60
2017,08,03,00,50,20.60
2017,08,03,00,51,20.50
2017,08,03,00,52,20.50
2017,08,03,00,53,20.50
2017,08,03,00,54,20.40
2017,08,03,00,55,20.40
2017,08,03,00,56,20.40
2017,08,03,00,57,20.40
2017,08,03,00,58,20.30
2017,08,03,00,59,20.30
2017,08,03,01,00,20.30
2017,08,03,01,01,20.30
2017,08,03,01,02,20.30
2017,08,03,01,03,20.30
2017,08,03,01,04,20.20
2017,08,03,01,05,20.20
2017,08,03,01,06,20.20
2017,08,03,01,07,20.10
2017,08,03,01,08,20.10
2017,08,03,01,09,20.10
2017,08,03,01,10,20.00
2017,08,03,01,11,20.00
2017,08,03,01,12,20.00
2017,08,03,01,13,19.90
2017,08,03,01,14,19.90
2017,08,03,01,15,19.90
2017,08,03,01,16,19.90
2017,08,03,01,17,19.80
2017,08,03,01,18,19.80
2017,08,03,01,19,19.80
2017,08,03,01,20,19.80
2017,08,03,01,21,19.70
2017,08,03,01,22,19.70
2017,08,03,01,23,19.60
2017,08,03,01,24,19.60
2017,08,03,01,25,19.60
2017,08,03,01,26,19.60
2017,08,03,01,27,19.50
2017,08,03,01,28,19.50
2017,08,03,01,29,19.50
2017,08,03,01,30,19.50
2017,08,03,01,31,19.50
2017,08,03,01,32,19.50
2017,08,03,01,33,19.50
2017,08,03,01,34,19.50
2017,08,03,01,35,19.50
2017,08,03,01,36,19.50
2017,08,03,01,37,19.50
2017,08,03,01,38,19.50
2017,08,03,01,39,19.50
2017,08,03,01,40,19.50
2017,08,03,01,41,19.50
2017,08,03,01,42,19.50
2017,08,03,01,43,19.50
2017,08,03,01,44,19.50
2017,08,03,01,45,19.50
2017,08,03,01,46,19.40
2017,08,03,01,47,19.40
2017,08,03,01,48,19.40
2017,08,03,01,49,19.40
2017,08,03,01,50,19.40
2017,08,03,01,51,19.40
2017,08,03,01,52,19.40
2017,08,03,01,53,19.40
2017,08,03,01,54,19.40
2017,08,03,01,55,19.40
2017,08,03,01,56,19.30
2017,08,03,01,57,19.30
2017,08,03,01,58,19.30
2017,08,03,01,59,19.30
2017,08,03,02,00,19.30
2017,08,03,02,01,19.30
2017,08,03,02,02,19.30
2017,08,03,02,03,19.20
2017,08,03,02,04,19.20
2017,08,03,02,05,19.20
2017,08,03,02,06,19.20
2017,08,03,02,07,19.20
2017,08,03,02,08,19.10
2017,08,03,02,09,19.10
2017,08,03,02,10,19.10
2017,08,03,02,11,19.00
2017,08,03,02,12,19.00
2017,08,03,02,13,19.00
2017,08,03,02,14,18.90
2017,08,03,02,15,18.90
2017,08,03,02,16,18.90
2017,08,03,02,17,18.90
2017,08,03,02,18,18.90
2017,08,03,02,19,18.90
2017,08,03,02,20,18.90
2017,08,03,02,21,18.90
2017,08,03,02,22,18.90
2017,08,03,02,23,18.90
2017,08,03,02,24,18.80
2017,08,03,02,25,18.80
2017,08,03,02,26,18.80
2017,08,03,02,27,18.80
2017,08,03,02,28,18.80
2017,08,03,02,29,18.80
2017,08,03,02,30,18.80
2017,08,03,02,31,18.80
2017,08,03,02,32,18.70
2017,08,03,02,33,18.70
2017,08,03,02,34,18.70
2017,08,03,02,35,18.70
2017,08,03,02,36,18.70
2017,08,03,02,37,18.70
2017,08,03,02,38,18.70
2017,08,03,02,39,18.70
2017,08,03,02,40,18.70
2017,08,03,02,41,18.70
2017,08,03,02,42,18.70
2017,08,03,02,43,18.60
2017,08,03,02,44,18.60
2017,08,03,02,45,18.60
2017,08,03,02,46,18.60
2017,08,03,02,47,18.60
2017,08,03,02,48,18.60
2017,08,03,02,49,18.60
2017,08,03,02,50,18.60
2017,08,03,02,51,18.60
2017,08,03,02,52,18.60
2017,08,03,02,53,18.60
2017,08,03,02,54,18.60
2017,08,03,02,55,18.60
2017,08,03,02,56,18.60
2017,08,03,02,57,18.50
2017,08,03,02,58,18.50
2017,08,03,02,59,18.50
2017,08,03,03,00,18.50
2017,08,03,03,01,18.40
2017,08,03,03,02,18.40
2017,08,03,03,03,18.40
2017,08,03,03,04,18.40
2017,08,03,03,05,18.40
2017,08,03,03,06,18.30
2017,08,03,03,07,18.30
2017,08,03,03,08,18.30
2017,08,03,03,09,18.30
2017,08,03,03,10,18.20
2017,08,03,03,11,18.20
2017,08,03,03,12,18.10
2017,08,03,03,13,18.10
2017,08,03,03,14,18.10
2017,08,03,03,15,18.10
2017,08,03,03,16,18.10
2017,08,03,03,17,18.00
2017,08,03,03,18,18.00
2017,08,03,03,19,18.00
2017,08,03,03,20,18.00
2017,08,03,03,21,18.00
2017,08,03,03,22,17.90
2017,08,03,03,23,17.90
2017,08,03,03,24,17.90
2017,08,03,03,25,17.90
2017,08,03,03,26,17.90
2017,08,03,03,27,17.90
2017,08,03,03,28,17.90
2017,08,03,03,29,17.80
2017,08,03,03,30,17.90
2017,08,03,03,31,17.90
2017,08,03,03,32,17.90
2017,08,03,03,33,17.90
2017,08,03,03,34,17.90
2017,08,03,03,35,17.80
2017,08,03,03,36,17.80
2017,08,03,03,37,17.80
2017,08,03,03,38,17.80
2017,08,03,03,39,17.80
2017,08,03,03,40,17.80
2017,08,03,03,41,17.70
2017,08,03,03,42,17.70
2017,08,03,03,43,17.70
2017,08,03,03,44,17.70
2017,08,03,03,45,17.70
2017,08,03,03,46,17.70
2017,08,03,03,47,17.70
2017,08,03,03,48,17.70
2017,08,03,03,49,17.70
2017,08,03,03,50,17.70
2017,08,03,03,51,17.70
2017,08,03,03,52,17.70
2017,08,03,03,53,17.60
2017,08,03,03,54,17.60
2017,08,03,03,55,17.60
2017,08,03,03,56,17.60
2017,08,03,03,57,17.60
2017,08,03,03,58,17.50
2017,08,03,03,59,17.50
2017,08,03,04,00,17.50
2017,08,03,04,01,17.40
2017,08,03,04,02,17.40
2017,08,03,04,03,17.40
2017,08,03,04,04,17.40
2017,08,03,04,05,17.40
2017,08,03,04,06,17.40
2017,08,03,04,07,17.40
2017,08,03,04,08,17.40
2017,08,03,04,09,17.30
2017,08,03,04,10,17.30
2017,08,03,04,11,17.30
2017,08,03,04,12,17.30
2017,08,03,04,13,17.30
2017,08,03,04,14,17.30
2017,08,03,04,15,17.30
2017,08,03,04,16,17.20
2017,08,03,04,17,17.20
2017,08,03,04,18,17.20
2017,08,03,04,19,17.20
2017,08,03,04,20,17.20
2017,08,03,04,21,17.20
2017,08,03,04,22,17.20
2017,08,03,04,23,17.20
2017,08,03,04,24,17.20
2017,08,03,04,25,17.20
2017,08,03,04,26,17.20
2017,08,03,04,27,17.20
2017,08,03,04,28,17.20
2017,08,03,04,29,17.20
2017,08,03,04,30,17.10
2017,08,03,04,31,17.10
2017,08,03,04,32,17.10
2017,08,03,04,33,17.10
2017,08,03,04,34,17.10
2017,08,03,04,35,17.10
2017,08,03,04,36,17.10
2017,08,03,04,37,17.00
2017,08,03,04,38,17.00
2017,08,03,04,39,17.00
2017,08,03,04,40,17.00
2017,08,03,04,41,16.90
2017,08,03,04,42,16.90
2017,08,03,04,43,16.90
2017,08,03,04,44,17.00
2017,08,03,04,45,17.00
2017,08,03,04,46,17.00
2017,08,03,04,47,17.00
2017,08,03,04,48,17.00
2017,08,03,04,49,17.00
2017,08,03,04,50,17.00
2017,08,03,04,51,16.90
2017,08,03,04,52,16.90
2017,08,03,04,53,16.90
2017,08,03,04,54,16.90
2017,08,03,04,55,16.80
2017,08,03,04,56,16.80
2017,08,03,04,57,16.80
2017,08,03,04,58,16.80
2017,08,03,04,59,16.80
2017,08,03,05,00,16.80
2017,08,03,05,01,16.80
2017,08,03,05,02,16.70
2017,08,03,05,03,16.70
2017,08,03,05,04,16.70
2017,08,03,05,05,16.70
2017,08,03,05,06,16.70
2017,08,03,05,07,16.70
2017,08,03,05,08,16.70
2017,08,03,05,09,16.70
2017,08,03,05,10,16.70
2017,08,03,05,11,16.70
2017,08,03,05,12,16.70
2017,08,03,05,13,16.60
2017,08,03,05,14,16.60
2017,08,03,05,15,16.60
2017,08,03,05,16,16.50
2017,08,03,05,17,16.50
2017,08,03,05,18,16.50
2017,08,03,05,19,16.40
2017,08,03,05,20,16.40
2017,08,03,05,21,16.40
2017,08,03,05,22,16.40
2017,08,03,05,23,16.40
2017,08,03,05,24,16.40
2017,08,03,05,25,16.30
2017,08,03,05,26,16.30
2017,08,03,05,27,16.30
2017,08,03,05,28,16.30
2017,08,03,05,29,16.30
2017,08,03,05,30,16.30
2017,08,03,05,31,16.30
2017,08,03,05,32,16.30
2017,08,03,05,33,16.30
2017,08,03,05,34,16.30
2017,08,03,05,35,16.30
2017,08,03,05,36,16.30
2017,08,03,05,37,16.30
2017,08,03,05,38,16.40
2017,08,03,05,39,16.40
2017,08,03,05,40,16.40
2017,08,03,05,41,16.40
2017,08,03,05,42,16.40
2017,08,03,05,43,16.40
2017,08,03,05,44,16.40
2017,08,03,05,45,16.40
2017,08,03,05,46,16.40
2017,08,03,05,47,16.40
2017,08,03,05,48,16.30
2017,08,03,05,49,16.30
2017,08,03,05,50,16.30
2017,08,03,05,51,16.30
2017,08,03,05,52,16.30
2017,08,03,05,53,16.30
2017,08,03,05,54,16.30
2017,08,03,05,55,16.20
2017,08,03,05,56,16.20
2017,08,03,05,57,16.20
2017,08,03,05,58,16.20
2017,08,03,05,59,16.20
2017,08,03,06,00,16.20
2017,08,03,06,01,16.20
2017,08,03,06,02,16.20
2017,08,03,06,03,16.20
2017,08,03,06,04,16.20
2017,08,03,06,05,16.20
2017,08,03,06,06,16.30
2017,08,03,06,07,16.30
2017,08,03,06,08,16.30
2017,08,03,06,09,16.30
2017,08,03,06,10,16.30
2017,08,03,06,11,16.30
2017,08,03,06,12,16.30
2017,08,03,06,13,16.20
2017,08,03,06,14,16.20
2017,08,03,06,15,16.20
2017,08,03,06,16,16.20
2017,08,03,06,17,16.10
2017,08,03,06,18,16.10
2017,08,03,06,19,16.10
2017,08,03,06,20,16.10
2017,08,03,06,21,16.10
2017,08,03,06,22,16.10
2017,08,03,06,23,16.10
2017,08,03,06,24,16.10
2017,08,03,06,25,16.10
2017,08,03,06,26,16.10
2017,08,03,06,27,16.10
2017,08,03,06,28,16.10
2017,08,03,06,29,16.20
2017,08,03,06,30,16.20
2017,08,03,06,31,16.20
2017,08,03,06,32,16.20
2017,08,03,06,33,16.20
2017,08,03,06,34,16.20
2017,08,03,06,35,16.20
2017,08,03,06,36,16.20
2017,08,03,06,37,16.20
2017,08,03,06,38,16.20
2017,08,03,06,39,16.20
2017,08,03,06,40,16.20
2017,08,03,06,41,16.20
2017,08,03,06,42,16.20
2017,08,03,06,43,16.20
2017,08,03,06,44,16.20
2017,08,03,06,45,16.20
2017,08,03,06,46,16.20
2017,08,03,06,47,16.20
2017,08,03,06,48,16.20
2017,08,03,06,49,16.20
2017,08,03,06,50,16.20
2017,08,03,06,51,16.20
2017,08,03,06,52,16.20
2017,08,03,06,53,16.20
2017,08,03,06,54,16.20
2017,08,03,06,55,16.20
2017,08,03,06,56,16.20
2017,08,03,06,57,16.20
2017,08,03,06,58,16.30
2017,08,03,06,59,16.30
2017,08,03,07,00,16.30
2017,08,03,07,01,16.30
2017,08,03,07,02,16.30
2017,08,03,07,03,16.40
2017,08,03,07,04,16.40
2017,08,03,07,05,16.40
2017,08,03,07,06,16.40
2017,08,03,07,07,16.40
2017,08,03,07,08,16.40
2017,08,03,07,09,16.50
2017,08,03,07,10,16.50
2017,08,03,07,11,16.50
2017,08,03,07,12,16.60
2017,08,03,07,13,16.60
2017,08,03,07,14,16.60
2017,08,03,07,15,16.60
2017,08,03,07,16,16.60
2017,08,03,07,17,16.60
2017,08,03,07,18,16.60
2017,08,03,07,19,16.70
2017,08,03,07,20,16.70
2017,08,03,07,21,16.70
2017,08,03,07,22,16.70
2017,08,03,07,23,16.70
2017,08,03,07,24,16.70
2017,08,03,07,25,16.70
2017,08,03,07,26,16.80
2017,08,03,07,27,16.80
2017,08,03,07,28,16.80
2017,08,03,07,29,16.80
2017,08,03,07,30,16.80
2017,08,03,07,31,16.80
2017,08,03,07,32,16.80
2017,08,03,07,33,16.80
2017,08,03,07,34,16.80
2017,08,03,07,35,16.90
2017,08,03,07,36,16.90
2017,08,03,07,37,16.90
2017,08,03,07,38,16.90
2017,08,03,07,39,16.90
2017,08,03,07,40,17.00
2017,08,03,07,41,17.00
2017,08,03,07,42,17.10
2017,08,03,07,43,17.10
2017,08,03,07,44,17.10
2017,08,03,07,45,17.10
2017,08,03,07,46,17.20
2017,08,03,07,47,17.20
2017,08,03,07,48,17.20
2017,08,03,07,49,17.20
2017,08,03,07,50,17.30
2017,08,03,07,51,17.30
2017,08,03,07,52,17.30
2017,08,03,07,53,17.30
2017,08,03,07,54,17.40
2017,08,03,07,55,17.40
2017,08,03,07,56,17.40
2017,08,03,07,57,17.40
2017,08,03,07,58,17.50
2017,08,03,07,59,17.50
2017,08,03,08,00,17.60
2017,08,03,08,01,17.60
2017,08,03,08,02,17.60
2017,08,03,08,03,17.70
2017,08,03,08,04,17.70
2017,08,03,08,05,17.70
2017,08,03,08,06,17.70
2017,08,03,08,07,17.80
2017,08,03,08,08,17.80
2017,08,03,08,09,17.80
2017,08,03,08,10,17.80
2017,08,03,08,11,17.90
2017,08,03,08,12,17.90
2017,08,03,08,13,17.90
2017,08,03,08,14,18.00
2017,08,03,08,15,18.00
2017,08,03,08,16,18.00
2017,08,03,08,17,18.10
2017,08,03,08,18,18.10
2017,08,03,08,19,18.20
2017,08,03,08,20,18.20
2017,08,03,08,21,18.20
2017,08,03,08,22,18.30
2017,08,03,08,23,18.30
2017,08,03,08,24,18.30
2017,08,03,08,25,18.30
2017,08,03,08,26,18.40
2017,08,03,08,27,18.40
2017,08,03,08,28,18.50
2017,08,03,08,29,18.50
2017,08,03,08,30,18.60
2017,08,03,08,31,18.60
2017,08,03,08,32,18.60
2017,08,03,08,33,18.70
2017,08,03,08,34,18.70
2017,08,03,08,35,18.70
2017,08,03,08,36,18.80
2017,08,03,08,37,18.80
2017,08,03,08,38,18.90
2017,08,03,08,39,18.90
2017,08,03,08,40,18.90
2017,08,03,08,41,18.90
2017,08,03,08,42,19.00
2017,08,03,08,43,19.10
2017,08,03,08,44,19.10
2017,08,03,08,45,19.10
2017,08,03,08,46,19.20
2017,08,03,08,47,19.20
2017,08,03,08,48,19.30
2017,08,03,08,49,19.30
2017,08,03,08,50,19.30
2017,08,03,08,51,19.40
2017,08,03,08,52,19.40
2017,08,03,08,53,19.50
2017,08,03,08,54,19.50
2017,08,03,08,55,19.60
2017,08,03,08,56,19.60
2017,08,03,08,57,19.70
2017,08,03,08,58,19.70
2017,08,03,08,59,19.80
2017,08,03,09,00,19.80
2017,08,03,09,01,19.80
2017,08,03,09,02,19.90
2017,08,03,09,03,19.90
2017,08,03,09,04,20.00
2017,08,03,09,05,20.10
2017,08,03,09,06,20.10
2017,08,03,09,07,20.20
2017,08,03,09,08,20.20
2017,08,03,09,09,20.30
2017,08,03,09,10,20.30
2017,08,03,09,11,20.40
2017,08,03,09,12,20.50
2017,08,03,09,13,20.60
2017,08,03,09,14,20.60
2017,08,03,09,15,20.70
2017,08,03,09,16,20.80
2017,08,03,09,17,20.90
2017,08,03,09,18,20.90
2017,08,03,09,19,21.00
2017,08,03,09,20,21.10
2017,08,03,09,21,21.20
2017,08,03,09,22,21.20
2017,08,03,09,23,21.30
2017,08,03,09,24,21.40
2017,08,03,09,25,21.40
2017,08,03,09,26,21.50
2017,08,03,09,27,21.50
2017,08,03,09,28,21.60
2017,08,03,09,29,21.70
2017,08,03,09,30,21.70
2017,08,03,09,31,21.80
2017,08,03,09,32,21.80
2017,08,03,09,33,21.90
2017,08,03,09,34,22.00
2017,08,03,09,35,22.00
2017,08,03,09,36,22.10
2017,08,03,09,37,22.20
2017,08,03,09,38,22.20
2017,08,03,09,39,22.30
2017,08,03,09,40,22.40
2017,08,03,09,41,22.50
2017,08,03,09,42,22.60
2017,08,03,09,43,22.60
2017,08,03,09,44,22.70
2017,08,03,09,45,22.80
2017,08,03,09,46,22.80
2017,08,03,09,47,22.90
2017,08,03,09,48,23.00
2017,08,03,09,49,23.10
2017,08,03,09,50,23.20
2017,08,03,09,51,23.30
2017,08,03,09,52,23.40
2017,08,03,09,53,23.50
2017,08,03,09,54,23.60
2017,08,03,09,55,23.70
2017,08,03,09,56,23.80
2017,08,03,09,57,23.90
2017,08,03,09,58,23.90
2017,08,03,09,59,24.00
2017,08,03,10,00,24.00
2017,08,03,10,01,24.10
2017,08,03,10,02,24.20
2017,08,03,10,03,24.30
2017,08,03,10,04,24.30
2017,08,03,10,05,24.40
2017,08,03,10,06,24.50
2017,08,03,10,07,24.50
2017,08,03,10,08,24.60
2017,08,03,10,09,24.70
2017,08,03,10,10,24.70
2017,08,03,10,11,24.80
2017,08,03,10,12,24.90
2017,08,03,10,13,24.90
2017,08,03,10,14,25.00
2017,08,03,10,15,25.10
2017,08,03,10,16,25.20
2017,08,03,10,17,25.20
2017,08,03,10,18,25.30
2017,08,03,10,19,25.40
2017,08,03,10,20,25.40
2017,08,03,10,21,25.50
2017,08,03,10,22,25.50
2017,08,03,10,23,25.60
2017,08,03,10,24,25.70
2017,08,03,10,25,25.70
2017,08,03,10,26,25.80
2017,08,03,10,27,25.90
2017,08,03,10,28,25.90
2017,08,03,10,29,25.90
2017,08,03,10,30,25.90
2017,08,03,10,31,25.90
2017,08,03,10,32,26.00
2017,08,03,10,33,26.00
2017,08,03,10,34,26.10
2017,08,03,10,35,26.10
2017,08,03,10,36,26.20
2017,08,03,10,37,26.20
2017,08,03,10,38,26.20
2017,08,03,10,39,26.30
2017,08,03,10,40,26.40
2017,08,03,10,41,26.40
2017,08,03,10,42,26.40
2017,08,03,10,43,26.50
2017,08,03,10,44,26.50
2017,08,03,10,45,26.60
2017,08,03,10,46,26.60
2017,08,03,10,47,26.70
2017,08,03,10,48,26.80
2017,08,03,10,49,26.80
2017,08,03,10,50,26.90
2017,08,03,10,51,26.90
2017,08,03,10,52,27.00
2017,08,03,10,53,27.00
2017,08,03,10,54,27.10
2017,08,03,10,55,27.20
2017,08,03,10,56,27.30
2017,08,03,10,57,27.30
2017,08,03,10,58,27.40
2017,08,03,10,59,27.40
2017,08,03,11,00,27.50
2017,08,03,11,01,27.60
2017,08,03,11,02,27.60
2017,08,03,11,03,27.70
2017,08,03,11,04,27.70
2017,08,03,11,05,27.80
2017,08,03,11,06,27.90
2017,08,03,11,07,27.90
2017,08,03,11,08,28.00
2017,08,03,11,09,28.00
2017,08,03,11,10,28.10
2017,08,03,11,11,28.10
2017,08,03,11,12,28.10
2017,08,03,11,13,28.20
2017,08,03,11,14,28.30
2017,08,03,11,15,28.40
2017,08,03,11,16,28.40
2017,08,03,11,17,28.40
2017,08,03,11,18,28.40
2017,08,03,11,19,28.40
2017,08,03,11,20,28.40
2017,08,03,11,21,28.40
2017,08,03,11,22,28.40
2017,08,03,11,23,28.40
2017,08,03,11,24,28.50
2017,08,03,11,25,28.60
2017,08,03,11,26,28.60
2017,08,03,11,27,28.70
2017,08,03,11,28,28.80
2017,08,03,11,29,28.90
2017,08,03,11,30,29.00
2017,08,03,11,31,29.10
2017,08,03,11,32,29.20
2017,08,03,11,33,29.30
2017,08,03,11,34,29.30
2017,08,03,11,35,29.40
2017,08,03,11,36,29.50
2017,08,03,11,37,29.60
2017,08,03,11,38,29.60
2017,08,03,11,39,29.70
2017,08,03,11,40,29.80
2017,08,03,11,41,29.90
2017,08,03,11,42,30.00
2017,08,03,11,43,30.00
2017,08,03,11,44,30.10
2017,08,03,11,45,30.20
2017,08,03,11,46,30.20
2017,08,03,11,47,30.30
2017,08,03,11,48,30.30
2017,08,03,11,49,30.30
2017,08,03,11,50,30.30
2017,08,03,11,51,30.30
2017,08,03,11,52,30.20
2017,08,03,11,53,30.20
2017,08,03,11,54,30.20
2017,08,03,11,55,30.20
2017,08,03,11,56,30.20
2017,08,03,11,57,30.30
2017,08,03,11,58,30.30
2017,08,03,11,59,30.30
2017,08,03,12,00,30.30
2017,08,03,12,01,30.30
2017,08,03,12,02,30.30
2017,08,03,12,03,30.30
2017,08,03,12,04,30.30
2017,08,03,12,05,30.40
2017,08,03,12,06,30.40
2017,08,03,12,07,30.40
2017,08,03,12,08,30.40
2017,08,03,12,09,30.40
2017,08,03,12,10,30.50
2017,08,03,12,11,30.50
2017,08,03,12,12,30.50
2017,08,03,12,13,30.60
2017,08,03,12,14,30.60
2017,08,03,12,15,30.60
2017,08,03,12,16,30.60
2017,08,03,12,17,30.60
2017,08,03,12,18,30.60
2017,08,03,12,19,30.60
2017,08,03,12,20,30.70
2017,08,03,12,21,30.70
2017,08,03,12,22,30.70
2017,08,03,12,23,30.60
2017,08,03,12,24,30.60
2017,08,03,12,25,30.50
2017,08,03,12,26,30.40
2017,08,03,12,27,30.40
2017,08,03,12,28,30.40
2017,08,03,12,29,30.40
2017,08,03,12,30,30.50
2017,08,03,12,31,30.50
2017,08,03,12,32,30.60
2017,08,03,12,33,30.60
2017,08,03,12,34,30.60
2017,08,03,12,35,30.60
2017,08,03,12,36,30.60
2017,08,03,12,37,30.70
2017,08,03,12,38,30.70
2017,08,03,12,39,30.80
2017,08,03,12,40,30.80
2017,08,03,12,41,30.90
2017,08,03,12,42,30.90
2017,08,03,12,43,30.90
2017,08,03,12,44,31.00
2017,08,03,12,45,31.00
2017,08,03,12,46,31.00
2017,08,03,12,47,31.10
2017,08,03,12,48,31.00
2017,08,03,12,49,30.90
2017,08,03,12,50,30.90
2017,08,03,12,51,30.80
2017,08,03,12,52,30.80
2017,08,03,12,53,30.80
2017,08,03,12,54,30.80
2017,08,03,12,55,30.80
2017,08,03,12,56,30.80
2017,08,03,12,57,30.80
2017,08,03,12,58,30.80
2017,08,03,12,59,30.80
2017,08,03,13,00,30.80
2017,08,03,13,01,30.90
2017,08,03,13,02,30.90
2017,08,03,13,03,31.00
2017,08,03,13,04,31.10
2017,08,03,13,05,31.10
2017,08,03,13,06,31.10
2017,08,03,13,07,31.20
2017,08,03,13,08,31.20
2017,08,03,13,09,31.20
2017,08,03,13,10,31.20
2017,08,03,13,11,31.30
2017,08,03,13,12,31.30
2017,08,03,13,13,31.40
2017,08,03,13,14,31.40
2017,08,03,13,15,31.40
2017,08,03,13,16,31.30
2017,08,03,13,17,31.30
2017,08,03,13,18,31.30
2017,08,03,13,19,31.30
2017,08,03,13,20,31.40
2017,08,03,13,21,31.40
2017,08,03,13,22,31.40
2017,08,03,13,23,31.50
2017,08,03,13,24,31.50
2017,08,03,13,25,31.60
2017,08,03,13,26,31.60
2017,08,03,13,27,31.60
2017,08,03,13,28,31.60
2017,08,03,13,29,31.70
2017,08,03,13,30,31.70
2017,08,03,13,31,31.70
2017,08,03,13,32,31.70
2017,08,03,13,33,31.80
2017,08,03,13,34,31.80
2017,08,03,13,35,31.90
2017,08,03,13,36,31.90
2017,08,03,13,37,31.90
2017,08,03,13,38,32.00
2017,08,03,13,39,32.00
2017,08,03,13,40,32.00
2017,08,03,13,41,31.90
2017,08,03,13,42,31.90
2017,08,03,13,43,31.90
2017,08,03,13,44,31.90
2017,08,03,13,45,31.90
2017,08,03,13,46,31.90
2017,08,03,13,47,32.00
2017,08,03,13,48,32.00
2017,08,03,13,49,32.00
2017,08,03,13,50,32.10
2017,08,03,13,51,32.10
2017,08,03,13,52,32.10
2017,08,03,13,53,32.10
2017,08,03,13,54,32.10
2017,08,03,13,55,32.10
2017,08,03,13,56,32.10
2017,08,03,13,57,32.00
2017,08,03,13,58,32.00
2017,08,03,13,59,32.00
2017,08,03,14,00,32.10
2017,08,03,14,01,32.10
2017,08,03,14,02,32.00
2017,08,03,14,03,32.00
2017,08,03,14,04,32.00
2017,08,03,14,05,32.00
2017,08,03,14,06,31.90
2017,08,03,14,07,31.90
2017,08,03,14,08,31.90
2017,08,03,14,09,31.90
2017,08,03,14,10,32.00
2017,08,03,14,11,32.00
2017,08,03,14,12,31.90
2017,08,03,14,13,31.80
2017,08,03,14,14,31.80
2017,08,03,14,15,31.80
2017,08,03,14,16,31.80
2017,08,03,14,17,31.80
2017,08,03,14,18,31.70
2017,08,03,14,19,31.70
2017,08,03,14,20,31.60
2017,08,03,14,21,31.60
2017,08,03,14,22,31.50
2017,08,03,14,23,31.50
2017,08,03,14,24,31.50
2017,08,03,14,25,31.50
2017,08,03,14,26,31.60
2017,08,03,14,27,31.50
2017,08,03,14,28,31.50
2017,08,03,14,29,31.60
2017,08,03,14,30,31.60
2017,08,03,14,31,31.70
2017,08,03,14,32,31.70
2017,08,03,14,33,31.80
2017,08,03,14,34,31.90
2017,08,03,14,35,31.90
2017,08,03,14,36,32.00
2017,08,03,14,37,32.10
2017,08,03,14,38,32.20
2017,08,03,14,39,32.30
2017,08,03,14,40,32.40
2017,08,03,14,41,32.40
2017,08,03,14,42,32.50
2017,08,03,14,43,32.50
2017,08,03,14,44,32.40
2017,08,03,14,45,32.50
2017,08,03,14,46,32.50
2017,08,03,14,47,32.50
2017,08,03,14,48,32.60
2017,08,03,14,49,32.60
2017,08,03,14,50,32.70
2017,08,03,14,51,32.80
2017,08,03,14,52,32.80
2017,08,03,14,53,32.90
2017,08,03,14,54,33.00
2017,08,03,14,55,33.10
2017,08,03,14,56,33.10
2017,08,03,14,57,33.20
2017,08,03,14,58,33.20
2017,08,03,14,59,33.20
2017,08,03,15,00,33.20
2017,08,03,15,01,33.20
2017,08,03,15,02,33.20
2017,08,03,15,03,33.10
2017,08,03,15,04,33.10
2017,08,03,15,05,33.10
2017,08,03,15,06,33.00
2017,08,03,15,07,32.90
2017,08,03,15,08,32.90
2017,08,03,15,09,32.80
2017,08,03,15,10,32.80
2017,08,03,15,11,32.80
2017,08,03,15,12,32.70
2017,08,03,15,13,32.60
2017,08,03,15,14,32.60
2017,08,03,15,15,32.50
2017,08,03,15,16,32.40
2017,08,03,15,17,32.40
2017,08,03,15,18,32.40
2017,08,03,15,19,32.40
2017,08,03,15,20,32.40
2017,08,03,15,21,32.40
2017,08,03,15,22,32.40
2017,08,03,15,23,32.50
2017,08,03,15,24,32.50
2017,08,03,15,25,32.50
2017,08,03,15,26,32.50
2017,08,03,15,27,32.60
2017,08,03,15,28,32.60
2017,08,03,15,29,32.70
2017,08,03,15,30,32.70
2017,08,03,15,31,32.80
2017,08,03,15,32,32.90
2017,08,03,15,33,32.90
2017,08,03,15,34,33.00
2017,08,03,15,35,33.00
2017,08,03,15,36,33.10
2017,08,03,15,37,33.20
2017,08,03,15,38,33.20
2017,08,03,15,39,33.20
2017,08,03,15,40,33.20
2017,08,03,15,41,33.20
2017,08,03,15,42,33.20
2017,08,03,15,43,33.20
2017,08,03,15,44,33.20
2017,08,03,15,45,33.10
2017,08,03,15,46,33.10
2017,08,03,15,47,33.00
2017,08,03,15,48,33.00
2017,08,03,15,49,33.00
2017,08,03,15,50,33.00
2017,08,03,15,51,33.00
2017,08,03,15,52,33.00
2017,08,03,15,53,33.00
2017,08,03,15,54,32.90
2017,08,03,15,55,32.90
2017,08,03,15,56,32.90
2017,08,03,15,57,32.90
2017,08,03,15,58,32.90
2017,08,03,15,59,32.90
2017,08,03,16,00,32.90
2017,08,03,16,01,32.90
2017,08,03,16,02,32.90
2017,08,03,16,03,32.90
2017,08,03,16,04,32.90
2017,08,03,16,05,32.90
2017,08,03,16,06,32.80
2017,08,03,16,07,32.80
2017,08,03,16,08,32.80
2017,08,03,16,09,32.90
2017,08,03,16,10,32.90
2017,08,03,16,11,32.90
2017,08,03,16,12,32.90
2017,08,03,16,13,32.90
2017,08,03,16,14,32.90
2017,08,03,16,15,32.80
2017,08,03,16,16,32.80
2017,08,03,16,17,32.80
2017,08,03,16,18,32.70
2017,08,03,16,19,32.70
2017,08,03,16,20,32.60
2017,08,03,16,21,32.60
2017,08,03,16,22,32.60
2017,08,03,16,23,32.60
2017,08,03,16,24,32.60
2017,08,03,16,25,32.60
2017,08,03,16,26,32.60
2017,08,03,16,27,32.60
2017,08,03,16,28,32.70
2017,08,03,16,29,32.60
2017,08,03,16,30,32.60
2017,08,03,16,31,32.60
2017,08,03,16,32,32.60
2017,08,03,16,33,32.60
2017,08,03,16,34,32.60
2017,08,03,16,35,32.50
2017,08,03,16,36,32.40
2017,08,03,16,37,32.40
2017,08,03,16,38,32.30
2017,08,03,16,39,32.30
2017,08,03,16,40,32.40
2017,08,03,16,41,32.40
2017,08,03,16,42,32.40
2017,08,03,16,43,32.50
2017,08,03,16,44,32.50
2017,08,03,16,45,32.50
2017,08,03,16,46,32.60
2017,08,03,16,47,32.60
2017,08,03,16,48,32.60
2017,08,03,16,49,32.60
2017,08,03,16,50,32.60
2017,08,03,16,51,32.60
2017,08,03,16,52,32.60
2017,08,03,16,53,32.70
2017,08,03,16,54,32.70
2017,08,03,16,55,32.70
2017,08,03,16,56,32.70
2017,08,03,16,57,32.70
2017,08,03,16,58,32.70
2017,08,03,16,59,32.70
2017,08,03,17,00,32.70
2017,08,03,17,01,32.70
2017,08,03,17,02,32.70
2017,08,03,17,03,32.60
2017,08,03,17,04,32.60
2017,08,03,17,05,32.50
2017,08,03,17,06,32.40
2017,08,03,17,07,32.40
2017,08,03,17,08,32.40
2017,08,03,17,09,32.40
2017,08,03,17,10,32.30
2017,08,03,17,11,32.30
2017,08,03,17,12,32.30
2017,08,03,17,13,32.30
2017,08,03,17,14,32.30
2017,08,03,17,15,32.30
2017,08,03,17,16,32.30
2017,08,03,17,17,32.30
2017,08,03,17,18,32.30
2017,08,03,17,19,32.30